{"data":{"norad_id":53502,"intl_designator":"2022-099AP","name":"STARLINK-4435","alt_names":[],"object_type":"PAYLOAD","status":"ACTIVE","operator":null,"country":"US","launch_date":"2022-08-12","launch_site_code":"AFWTR","launch_vehicle":null,"mission":null,"orbit_class":"UNKNOWN","rcs_meters":null,"size_class":null,"mass_kg":null,"dimensions":null,"purposes":["comms"],"wikipedia_slug":null,"has_3d_model":false,"image_url":null,"decayed_at":null,"tle_current":{"epoch":"2026-09-20T06:12:43.677504Z","epoch_age_seconds":99857,"freshness":"FRESH","line1":"1 53502U 22099AP  26263.25883886  .00000513  00000+0  16470-4 0  9994","line2":"2 53502  97.4893  31.7961 0001073  91.1230 269.0137 15.36968192225929","mean_motion":15.36968192,"eccentricity":0.0001073,"inclination_deg":97.4893,"raan_deg":31.7961,"arg_perigee_deg":91.123,"mean_anomaly_deg":269.0137,"bstar":1.647e-5,"rev_number":22592,"period_min":93.690943475296,"perigee_km":454.34745898357,"apogee_km":455.8138674941,"semimajor_km":6833.2176632388,"source":"CELESTRAK","updated_at":"2026-09-21T09:00:32.896313Z"}}}